Flag for Canada Weather past 2 weeks in Fredericton, New Brunswick, Canada

Now
63 °F

Passing clouds.


Feels Like: 63 °F
Forecast: 63 / 79 °F
Wind: 10 mph from South

Location: Fredericton

Current Time: May 28, 2015 at 12:10:38 AM

Latest Report: May 27, 2015 at 11:00 PM


Visibility: 9 mi

Pressure: 30.02 "Hg

Humidity: 88%

Dew point: 59 °F

Location of FrederictonLocation

Historic Weather in Fredericton — Graph

°F

Fredericton temperature yesterday

Maximum temperature yesterday: 84 °F (at 4:00 PM)
Minimum temperature yesterday: 55 °F (at 4:00 AM)
Average temperature yesterday: 69 °F

Past Weeks' High & Low Weather Summary

 TemperatureHumidityPressure
High84 °F (May 27, 4:00 PM)100% (May 17, 8:03 PM)30.33 "Hg (May 17, 8:03 PM)
Low30 °F (May 14, 6:00 AM)16% (May 15, 5:00 PM)29.48 "Hg (May 20, 2:00 PM)
Average56 °F65%29.98 "Hg
* Reported May 12 11:00 PM — May 27 11:00 PM, Fredericton, Weather by CustomWeather, © 2015

Note: Actual official high and low records may vary slightly from our data, if they occured in-between our weather recording intervals... More about our weather records

Advertising

Fredericton weather history for previous 24 hours

 ConditionsComfort  
Time TempWeatherWind HumidityBarometerVisibility
11:00 PM
Wed, May 27
63 °FPassing clouds.10 mph88%30.02 "Hg9 mi
10:00 PM63 °FOvercast.3 mph83%30.03 "Hg9 mi
9:00 PM64 °FBroken clouds.15 mph83%29.99 "Hg9 mi
8:00 PM72 °FPassing clouds.15 mph69%29.96 "Hg9 mi
7:00 PM79 °FSunny.14 mph58%29.95 "Hg9 mi
6:00 PM81 °FSunny.16 mph51%29.96 "Hg9 mi
5:00 PM84 °FSunny.18 mph48%29.96 "Hg9 mi
4:00 PM84 °FPartly sunny.17 mph48%29.99 "Hg9 mi
3:00 PM81 °FPartly sunny.15 mph54%30.02 "Hg9 mi
2:00 PM82 °FBroken clouds.14 mph51%30.03 "Hg9 mi
1:00 PM82 °FPassing clouds.15 mph45%30.04 "Hg9 mi
12:00 PM82 °FSunny.12 mph48%30.05 "Hg9 mi
11:00 AM79 °FSunny.12 mph54%30.06 "Hg9 mi
10:00 AM72 °FSunny.8 mph69%30.08 "Hg9 mi
9:00 AM68 °FSunny.2 mph73%30.09 "Hg9 mi
8:00 AM63 °FSunny.6 mph77%30.08 "Hg9 mi
7:00 AM57 °FSunny.9 mph94%30.07 "Hg9 mi
6:00 AM55 °FClear.9 mph94%30.06 "Hg9 mi
5:00 AM55 °FClear.No wind94%30.04 "Hg8 mi
4:00 AM55 °FClear.5 mph94%30.03 "Hg9 mi
3:00 AM57 °FClear.9 mph88%30.03 "Hg9 mi
2:00 AM57 °FClear.6 mph88%30.03 "Hg9 mi
1:00 AM59 °FPassing clouds.8 mph88%30.02 "Hg9 mi
12:00 AM61 °FPassing clouds.9 mph83%30.01 "Hg9 mi
Weather by CustomWeather, © 2015

See weather overviewHow to use our weather pages